This demonstration page uses our WeatherBlox Daily Observations layout. Learn more.

Left ArrowRight Arrow

39.51506, -84.39828

Hourly Observations for October 14, 2015

Temp ( °F °C ) Dew Point ( °F °C ) Humidity (%) Winds ( mph kmh ) Pressure ( in mb ) Visibility ( mi km ) Precip ( " mm )
12:15 am 00:15 Clear 49 9.7 44 6.6 81 81 N N/A 29.88 1012 10 16 N/A
12:35 am 00:35 Clear 49 9.6 45 7.1 85 85 N N/A 29.88 1012 10 16 N/A
12:55 am 00:55 Clear 47 8.2 43 6.1 87 87 N N/A 29.88 1012 10 16 N/A
1:15 am 01:15 Clear 48 8.7 44 6.6 87 87 N N/A 29.88 1012 10 16 N/A
1:35 am 01:35 Clear 46 7.6 42 5.7 88 88 W 3 6 29.88 1012 7 11 N/A
1:55 am 01:55 Clear 46 8 43 6.3 89 89 N N/A 29.88 1012 10 16 N/A
2:15 am 02:15 Clear 43 6.3 40 4.5 88 88 N N/A 29.88 1012 7 11 N/A
2:35 am 02:35 Clear 44 6.8 41 5.1 89 89 N N/A 29.88 1012 7 11 N/A
2:55 am 02:55 Clear with Mist and Fog 44 6.8 41 5.1 89 89 N N/A 29.88 1012 5 8 N/A
3:15 am 03:15 Clear with Mist and Fog 42 5.6 39 3.9 89 89 N N/A 29.88 1012 4 6 N/A
3:35 am 03:35 Clear 42 5.7 39 4.1 90 90 N N/A 29.88 1012 7 11 N/A
3:55 am 03:55 Clear with Mist and Fog 42 5.7 39 4.1 90 90 N N/A 29.88 1012 2 3 N/A
4:15 am 04:15 Clear with Mist and Fog 42 5.5 39 3.9 90 90 N N/A 29.88 1012 5 8 N/A
4:35 am 04:35 Mostly Cloudy with Fog 42 5.5 39 3.8 89 89 N N/A 29.88 1012 1 1 N/A
4:55 am 04:55 Mostly Cloudy with Fog 39 4 37 2.5 90 90 N N/A 29.88 1012 1 1 N/A
5:15 am 05:15 Mostly Cloudy with Fog 42 5.4 39 3.9 90 90 N N/A 29.88 1012 1 1 N/A
5:35 am 05:35 Mostly Cloudy with Fog 42 5.5 39 4 90 90 N N/A 29.88 1012 0 0 N/A
5:55 am 05:55 Mostly Cloudy with Mist and Fog 41 5 38 3.5 90 90 N N/A 29.88 1012 1 2 N/A
6:15 am 06:15 Clear with Mist and Fog 41 4.8 38 3.3 90 90 N N/A 29.91 1013 3 5 N/A
6:35 am 06:35 Mostly Cloudy with Mist and Fog 40 4.7 38 3.2 90 90 N N/A 29.91 1013 2 3 N/A
6:55 am 06:55 Mostly Cloudy with Fog 40 4.7 38 3.3 91 91 N N/A 29.91 1013 0 0 N/A
7:15 am 07:15 Mostly Cloudy with Mist and Fog 39 4 37 2.6 91 91 N N/A 29.91 1013 1 2 N/A
7:35 am 07:35 Mostly Cloudy with Fog 40 4.3 37 2.9 91 91 N N/A 29.91 1013 1 1 N/A
7:55 am 07:55 Mostly Cloudy with Fog 40 4.6 38 3.3 91 91 N N/A 29.91 1013 0 0 N/A
8:15 am 08:15 Mostly Cloudy with Mist and Fog 40 4.7 38 3.4 91 91 N N/A 29.91 1013 1 1 N/A
8:35 am 08:35 Sunny with Mist and Fog 43 5.9 40 4.5 91 91 N N/A 29.91 1013 4 6 N/A
8:55 am 08:55 Sunny 44 6.6 42 5.3 92 92 N N/A 29.91 1013 7 11 N/A
9:15 am 09:15 Sunny 49 9.3 46 7.9 91 91 N N/A 29.94 1014 10 16 N/A
9:35 am 09:35 Sunny 49 9.6 47 8.1 90 90 N N/A 29.94 1014 10 16 N/A
9:55 am 09:55 Sunny 53 11.6 49 9.5 87 87 SSW 3 6 29.94 1014 10 16 N/A
10:15 am 10:15 Sunny 55 12.5 48 8.8 78 78 SW 3 6 29.94 1014 10 16 N/A
10:35 am 10:35 Sunny 56 13.4 47 8.2 71 71 NW 5 7 29.94 1014 10 16 N/A
10:55 am 10:55 Sunny 57 13.9 45 7.3 65 65 W 6 9 29.94 1014 10 16 N/A
11:15 am 11:15 Sunny 60 15.3 46 7.7 61 61 W 7 11 29.91 1013 10 16 N/A
11:35 am 11:35 Sunny 61 16 44 6.7 54 54 W 8 13 29.91 1013 10 16 N/A
11:55 am 11:55 Sunny 62 16.9 43 6 49 49 WNW 9 15 29.91 1013 10 16 N/A
12:15 pm 12:15 Sunny 62 16.8 43 6.3 50 50 W 12 19 29.94 1014 10 16 N/A
12:35 pm 12:35 Sunny 63 17.2 43 6.3 49 49 NW 12 19 29.94 1014 10 16 N/A
12:55 pm 12:55 Sunny 63 17.4 43 6.1 48 48 NW 8 13 29.94 1014 10 16 N/A
1:15 pm 13:15 Partly Cloudy 64 18 42 5.4 44 44 W 15 24 29.94 1014 10 16 N/A
1:35 pm 13:35 Partly Cloudy 64 18 40 4.6 41 41 WNW 15 24 29.94 1014 10 16 N/A
1:55 pm 13:55 Sunny 67 19.5 42 5.3 40 40 WNW 7 11 29.94 1014 10 16 N/A
2:15 pm 14:15 Sunny 67 19.5 40 4.6 38 38 WNW 14 22 29.94 1014 10 16 N/A
2:35 pm 14:35 Sunny 67 19.5 40 4.4 37 37 NW 16 26 29.91 1013 10 16 N/A
2:55 pm 14:55 Sunny 68 20.2 40 4.4 36 36 NW 15 24 29.94 1014 10 16 N/A
3:15 pm 15:15 Sunny 69 20.8 39 3.8 33 33 WNW 13 20 29.91 1013 10 16 N/A
3:35 pm 15:35 Sunny 69 20.8 39 3.8 33 33 NW 10 17 29.94 1014 10 16 N/A
3:55 pm 15:55 Sunny 69 20.3 37 3 32 32 WNW 12 19 29.94 1014 10 16 N/A
4:15 pm 16:15 Sunny 69 20.7 37 2.9 31 31 NNW 15 24 29.94 1014 10 16 N/A
4:35 pm 16:35 Sunny 69 20.8 38 3.2 31 31 WNW 10 17 29.94 1014 10 16 N/A
4:55 pm 16:55 Sunny 69 20.7 38 3.1 31 31 WNW 10 17 29.94 1014 10 16 N/A
5:15 pm 17:15 Sunny 67 19.5 36 2.1 32 32 NW 9 15 29.94 1014 10 16 N/A
5:35 pm 17:35 Sunny 67 19.5 35 1.8 31 31 NW 9 15 29.94 1014 10 16 N/A
5:55 pm 17:55 Sunny 64 18 33 0.8 32 32 NNW 10 17 29.94 1014 10 16 N/A
6:15 pm 18:15 Sunny 64 18 35 1.8 34 34 NW 8 13 29.94 1014 10 16 N/A
6:35 pm 18:35 Sunny 62 16.6 35 1.5 36 36 NW 7 11 29.97 1015 10 16 N/A
6:55 pm 18:55 Sunny 61 16 36 2.1 39 39 NW 5 7 29.97 1015 10 16 N/A
7:15 pm 19:15 Clear 59 15.1 41 4.9 51 51 NW 5 7 30.00 1016 10 16 N/A
7:35 pm 19:35 Clear 57 13.8 43 6.2 60 60 NW 5 7 30.00 1016 10 16 N/A
7:55 pm 19:55 Clear 55 12.5 44 6.8 68 68 N N/A 30.03 1017 10 16 N/A
8:15 pm 20:15 Clear 52 10.9 44 6.6 75 75 N N/A 30.03 1017 10 16 N/A
8:35 pm 20:35 Clear 52 11 44 6.8 76 76 N N/A 30.03 1017 10 16 N/A
8:55 pm 20:55 Clear 49 9.6 43 6.1 79 79 N N/A 30.03 1017 10 16 N/A
9:15 pm 21:15 Clear 49 9.6 44 6.5 81 81 N N/A 30.06 1018 10 16 N/A
9:35 pm 21:35 Clear 49 9.6 44 6.7 82 82 N N/A 30.06 1018 10 16 N/A
9:55 pm 21:55 Clear 49 9.6 43 6.3 80 80 N N/A 30.06 1018 10 16 N/A
10:15 pm 22:15 Clear 47 8.2 42 5.5 83 83 N N/A 30.06 1018 10 16 N/A
10:35 pm 22:35 Clear 49 9.6 44 6.7 82 82 N N/A 30.06 1018 10 16 N/A
10:55 pm 22:55 Clear 47 8.2 42 5.8 85 85 N N/A 30.06 1018 10 16 N/A
11:15 pm 23:15 Clear 47 8.2 42 5.6 84 84 N N/A 30.06 1018 10 16 N/A
11:35 pm 23:35 Clear 46 8 42 5.3 83 83 N N/A 30.06 1018 10 16 N/A
11:55 pm 23:55 Clear 47 8.2 42 5.5 83 83 N N/A 30.06 1018 10 16 N/A

Powered by AerisWeather